{"data":{"norad_id":59385,"intl_designator":"2024-062M","name":"STARLINK-31717","alt_names":[],"object_type":"PAYLOAD","status":"ACTIVE","operator":null,"country":"US","launch_date":"2024-04-02","launch_site_code":"AFWTR","launch_vehicle":null,"mission":null,"orbit_class":"UNKNOWN","rcs_meters":null,"size_class":null,"mass_kg":null,"dimensions":null,"purposes":["comms"],"wikipedia_slug":null,"has_3d_model":false,"image_url":null,"decayed_at":null,"tle_current":{"epoch":"2026-09-21T17:31:13.307232Z","epoch_age_seconds":56000,"freshness":"FRESH","line1":"1 59385U 24062M   26264.73001513  .00003101  00000+0  10286-3 0  9998","line2":"2 59385  53.1611  61.6992 0000540 142.9400 217.1640 15.34405999139723","mean_motion":15.34405999,"eccentricity":5.4e-5,"inclination_deg":53.1611,"raan_deg":61.6992,"arg_perigee_deg":142.94,"mean_anomaly_deg":217.164,"bstar":0.00010286,"rev_number":13972,"period_min":93.847391168861,"perigee_km":462.31600556283,"apogee_km":463.0548143831,"semimajor_km":6840.822409973,"source":"CELESTRAK","updated_at":"2026-09-22T09:00:48.909931Z"}}}